Home > Weather > Alicante > Past weeks

Flag for Spain Past Weather in Alicante, Spain — Yesterday and Last 2 Weeks

Now
79 °F

Passing clouds.


Feels Like: 82 °F
Forecast: 77 / 96 °F
Wind: 3 mph from South

Location: Alicante / El Altet

Current Time: Jul 30, 2016 at 10:55:34 PM

Latest Report: Jul 30, 2016 at 10:30 PM


Visibility: N/A

Pressure: 29.95 "Hg

Humidity: 84%

Dew Point: 73 °F

Location of AlicanteLocation

Past Weather in Alicante — Graph

°F

Alicante Temperature Yesterday

Maximum temperature yesterday: 86 °F (at 1:30 PM)
Minimum temperature yesterday: 72 °F (at 7:30 AM)
Average temperature yesterday: 80 °F

High & Low Weather Summary for the Past Weeks

 TemperatureHumidityPressure
High91 °F (Jul 30, 3:00 PM)89% (Jul 22, 1:00 AM)30.18 "Hg (Jul 22, 1:00 AM)
Low64 °F (Jul 17, 6:00 AM)31% (Jul 25, 1:30 PM)29.83 "Hg (Jul 22, 4:30 AM)
Average78 °F62%30.05 "Hg
* Reported Jul 15 9:00 PM — Jul 30 9:30 PM, Alicante, Weather by CustomWeather, © 2016

Note: Actual official high and low records may vary slightly from our data, if they occured in-between our weather recording intervals... More about our weather records

Advertising

Alicante Weather History for the Previous 24 Hours

Scroll right to see more
 ConditionsComfort  
Time TempWeatherWind HumidityBarometerVisibility
9:30 PM
Sat, Jul 30
81 °FPassing clouds.6 mph79%29.92 "HgN/A
9:00 PM82 °FPassing clouds.5 mph74%29.92 "HgN/A
8:30 PM82 °FPassing clouds.5 mph70%29.89 "HgN/A
8:00 PM84 °FSunny.6 mph58%29.89 "Hg10 mi
7:30 PM88 °FPassing clouds.7 mph52%29.89 "HgN/A
7:00 PM88 °FSunny.5 mph49%29.89 "Hg10 mi
6:30 PM88 °FPassing clouds.7 mph49%29.92 "HgN/A
6:00 PM90 °FPassing clouds.7 mph46%29.92 "HgN/A
5:30 PM90 °FPassing clouds.7 mph43%29.92 "HgN/A
5:00 PM90 °FPassing clouds.7 mph43%29.92 "HgN/A
4:30 PM88 °FPassing clouds.8 mph43%29.95 "HgN/A
4:00 PM90 °FPassing clouds.9 mph41%29.95 "HgN/A
3:30 PM88 °FPassing clouds.9 mph49%29.95 "HgN/A
3:00 PM91 °FSunny.2 mph34%29.95 "Hg10 mi
2:30 PM88 °FPassing clouds.6 mph46%29.98 "HgN/A
2:00 PM88 °FPassing clouds.7 mph49%29.98 "HgN/A
1:30 PM88 °FPassing clouds.6 mph43%29.98 "HgN/A
1:00 PM88 °FPassing clouds.7 mph49%29.98 "HgN/A
12:30 PM88 °FPassing clouds.7 mph43%29.98 "HgN/A
12:00 PM88 °FPassing clouds.5 mph40%29.98 "HgN/A
11:30 AM88 °FSunny.5 mph35%29.98 "Hg10 mi
11:00 AM86 °FSunny.2 mph38%29.98 "Hg10 mi
10:30 AM84 °FSunny.3 mph43%29.98 "Hg10 mi
10:00 AM82 °FPassing clouds.3 mph45%29.98 "HgN/A
9:30 AM81 °FSunny.1 mph48%29.98 "Hg10 mi
9:00 AM77 °FSunny.No wind61%29.98 "Hg10 mi
8:30 AM73 °FSunny.2 mph65%29.98 "Hg10 mi
8:00 AM72 °FSunny.5 mph57%29.98 "Hg10 mi
7:30 AM70 °FClear.5 mph60%29.98 "Hg10 mi
7:00 AM70 °FClear.5 mph64%29.98 "Hg10 mi
6:30 AM73 °FClear.1 mph61%29.95 "Hg10 mi
6:00 AM72 °FPassing clouds.3 mph61%29.95 "HgN/A
5:30 AM72 °FPassing clouds.5 mph61%29.98 "HgN/A
5:00 AM72 °FClear.3 mph69%29.98 "Hg10 mi
4:30 AM72 °FClear.3 mph69%29.98 "Hg10 mi
4:00 AM72 °FClear.5 mph69%29.98 "Hg10 mi
3:30 AM73 °FClear.5 mph65%29.98 "Hg10 mi
3:00 AM73 °FClear.5 mph74%30.01 "Hg10 mi
2:30 AM73 °FClear.2 mph78%30.01 "Hg10 mi
2:00 AM75 °FClear.1 mph78%30.01 "Hg10 mi
1:30 AM75 °FPassing clouds.3 mph78%30.04 "HgN/A
1:00 AM75 °FPassing clouds.3 mph78%30.04 "HgN/A
12:30 AM77 °FPassing clouds.3 mph79%30.04 "HgN/A
12:00 AM79 °FClear.2 mph74%30.01 "Hg10 mi
11:30 PM
Fri, Jul 29
79 °FPassing clouds.5 mph74%30.01 "HgN/A
11:00 PM79 °FClear.5 mph74%30.01 "Hg10 mi
10:30 PM79 °FClear.2 mph74%30.01 "Hg10 mi
10:00 PM79 °FPassing clouds.3 mph70%29.98 "HgN/A
Weather by CustomWeather, © 2016

See weather overviewHow to use our weather pages